Skip Page Navigation
NASA JPL Caltech
NASA Logo - Jet Propulsion Laboratory + View the NASA Portal
+ Center for Near-Earth Object Studies
JPL Home Earth Solar System Stars & Galaxies Technology
JPL Solar System Dynamics
BODIES ORBITS EPHEMERIDES TOOLS PHYSICAL DATA DISCOVERY FAQ SITE MAP
JPL Small-Body Database Browser
Search: [ help ]  
65414 (2002 TE30)
Classification: Main-belt Asteroid          SPK-ID: 2065414
Ephemeris | Orbit Diagram | Orbital Elements | Mission Design | Physical Parameters | Discovery Circumstances ]

[ show orbit diagram ]
Orbital Elements at Epoch 2459000.5 (2020-May-31.0) TDB
Reference: JPL 19 (heliocentric ecliptic J2000)
 Element Value Uncertainty (1-sigma)   Units 
e .07813947782825416 5.5305e-08  
a 2.912708399042156 1.7769e-08 au
q 2.685110885675031 1.6371e-07 au
i 1.105031986357128 3.7915e-06 deg
node 295.8194427406163 0.0003093 deg
peri 103.6281961385649 0.00031022 deg
M 185.7131248855109 2.4938e-05 deg
tp 2459879.534907123462
(2022-Oct-27.03490712)
0.00012876 TDB
period 1815.699354048138
4.97
1.6615e-05
4.549e-08
d
yr
n .1982707099594284 1.8143e-09 deg/d
Q 3.14030591240928 1.9157e-08 au
  Orbit Determination Parameters
   # obs. used (total)      682  
   data-arc span      9656 days (26.44 yr)  
   first obs. used      1993-11-20  
   last obs. used      2020-04-28  
   planetary ephem.      DE431  
   SB-pert. ephem.      SB431-N16  
   condition code      0  
   norm. resid. RMS      .56329  
   source      ORB  
   producer      Otto Matic  
   solution date      2020-May-20 12:50:49  

Additional Information
 Earth MOID = 1.69302 au 
 Jupiter MOID = 2.18635 au 
 T_jup = 3.278 
[ show covariance matrix ]

Ephemeris | Orbit Diagram | Orbital Elements | Mission Design | Physical Parameters | Discovery Circumstances ]

Physical Parameter Table
Parameter Symbol Value Units Sigma Reference Notes
absolute magnitude H 15.3   n/a MPO257292  

65414 (2002 TE30)          Discovered 2002-Oct-02 by LINEAR at Socorro
Reference: 20030614/Numbers.arcLast Updated: 2004-04-19
Ephemeris | Orbit Diagram | Orbital Elements | Mission Design | Physical Parameters | Discovery Circumstances ]
ABOUT SSD CREDITS/AWARDS PRIVACY/COPYRIGHT GLOSSARY LINKS
FirstGov 2020-Jul-11 09:38 UT
(server date/time)  
NASA Home Page
Site Manager:   Ryan S. Park
Webmaster  Alan B. Chamberlin